www.pogodaiklimat.ru

Погода и климат >> Архив погоды >> Канада >> Cambridge Bay Gsn


ПОГОДА в Cambridge Bay Gsn

  • Прогноз погоды в Cambridge Bay Gsn
  • Монитор погоды в Cambridge Bay Gsn
  • Климат города

АРХИВ ПОГОДЫ в Cambridge Bay Gsn

Время (UTC), дата Ветер
(напр.,м/с)
 
Видим.   Явления Облачность Т
(С)
Тd
(С)
f
(%)
Тe
(С)
Тes
(С)
Комфортность P
(гПа)
Po
(гПа)
Тmin
(С)
Tmax
(С)
R
(мм)
R24
(мм)
S
(см)
06 19.05 З 4 н/о н/о -5.0 -5.5 96 -11 -11 1007.3 1004.9 -9.4 -1.9
09 19.05 СЗ 5 н/о {осадки} н/о -6.8 -7.2 97 -14 -14 1007.8 1005.4 0.3
12 19.05 С 7 н/о {осадки} н/о -1.2 -1.9 95 -9 -9 1009.2 1006.8 -7.6 -1.9 0.6 12
15 19.05 С 5 н/о н/о +0.3 -1.5 88 -6 -6 1010.3 1007.9
18 19.05 С 4 н/о н/о +0.7 -1.5 85 -5 -5 1011.6 1009.2 -7.6 +0.7
21 19.05 СВ 5 н/о н/о -0.6 -2.7 86 -7 -7 1013.1 1010.7
00 20.05 СВ 4 н/о н/о -1.1 -2.9 88 -7 -7 1014.5 1012.1 -7.6 +0.7
03 20.05 В 4 н/о н/о -2.7 -3.7 93 -9 -9 1015.8 1013.4
06 20.05 В 4 н/о н/о -2.6 -3.7 92 -8 -8 1016.7 1014.3 -7.6 +0.7 12
09 20.05 В 3 н/о н/о -3.2 -3.9 95 -9 -9 1017.8 1015.4
12 20.05 В 5 н/о н/о -3.7 -4.5 94 -11 -11 1019.1 1016.6 -3.8 +0.7 12
15 20.05 ЮВ 6 н/о н/о -3.4 -4.6 91 -11 -11 1020.1 1017.6
18 20.05 ЮВ 6 н/о н/о -2.2 -3.6 90 -10 -10 1021.3 1018.8 -4.5 -2.2
21 20.05 ЮВ 7 н/о н/о -2.0 -3.3 91 -10 -10 1022.5 1020.0
00 21.05 ЮВ 8 н/о н/о -1.6 -2.4 94 -10 -10 1023.1 1020.6 -4.5 -1.4
03 21.05 ЮВ 7 н/о н/о -1.4 -1.8 97 -9 -9 1023.8 1021.3
06 21.05 ЮВ 8 н/о н/о -1.2 -1.5 98 -9 -9 1024.3 1021.8 -4.5 -1.2 5
09 21.05 Ю 9 н/о н/о -1.6 -1.8 99 -10 -10 1024.6 1022.1
12 21.05 ЮВ 9 н/о н/о -1.6 -1.8 99 -10 -10 1025.0 1022.5 -1.8 -1.2 11
15 21.05 Ю 8 н/о н/о -1.3 -1.8 96 -9 -9 1024.4 1021.9
18 21.05 Ю 7 н/о н/о -0.3 -1.0 95 -8 -8 1024.2 1021.7 -2.5 -0.3
21 21.05 ЮВ 6 н/о н/о -0.0 -0.6 96 -7 -7 1023.8 1021.3
00 22.05 ЮВ 5 н/о н/о +0.8 -0.2 93 -5 -5 1022.4 1020.0 -1.9 +0.8
03 22.05 В 4 н/о н/о +0.8 -0.2 93 -4 -4 1020.6 1018.2
06 22.05 ЮВ 5 н/о н/о +1.1 -0.1 92 -5 -5 1018.9 1016.5 -1.9 +1.7 8
09 22.05 Ю 5 н/о н/о +1.7 +0.1 89 -4 -4 1017.9 1015.5
12 22.05 Ю 7 н/о н/о +2.6 -0.2 82 -4 -4 1016.1 1013.7 +0.2 +1.7 10
15 22.05 Ю 11 н/о н/о +2.3 -0.2 84 -5 -5 1013.0 1010.6
18 22.05 Ю 9 н/о н/о +1.9 -0.2 86 -5 -5 1011.4 1009.0 -0.5 +2.9
21 22.05 Ю 12 н/о н/о +2.0 +0.2 88 -6 -6 1009.0 1006.6
00 23.05 Ю 8 н/о н/о +2.0 +0.6 90 -5 -5 1007.9 1005.5 +0.8 +2.6
03 23.05 ЮВ 8 н/о н/о +1.5 +0.5 93 -6 -6 1005.5 1003.1
06 23.05 ЮВ 7 н/о н/о +1.3 +0.5 94 -6 -6 1003.4 1001.0 +0.8 +2.9 22
09 23.05 ЮВ 8 н/о н/о +1.2 +0.5 95 -6 -6 1001.4 999.0
12 23.05 ЮВ 8 н/о {осадки} н/о +1.2 +0.8 97 -6 -6 1000.0 997.6 +1.1 +2.9 1 3
15 23.05 ЮВ 7 н/о н/о +1.0 +0.6 97 -6 -6 998.7 996.3 0.6
18 23.05 ЮВ 6 н/о {осадки} н/о +1.3 +0.7 96 -5 -5 997.6 995.2 +1.0 +1.4 0.6
21 23.05 В 5 н/о н/о +0.8 +0.4 97 -5 -5 997.4 995.0 0.3
00 24.05 В 4 н/о {осадки} н/о +0.8 +0.4 97 -4 -4 997.7 995.3 +0.7 +1.5 0.7
03 24.05 В 4 н/о н/о +0.5 +0.2 98 -5 -5 997.8 995.4 2
06 24.05 В 5 н/о {осадки} н/о +0.4 +0.3 99 -6 -6 997.9 995.5 +0.4 +1.5 2 7
09 24.05 СВ 4 н/о н/о +0.4 +0.3 99 -5 -5 998.5 996.1
12 24.05 СВ 4 н/о н/о +0.5 +0.4 99 -5 -5 999.0 996.6 +0.3 +1.5
15 24.05 СВ 4 н/о н/о +0.7 +0.6 99 -5 -5 999.9 997.5
18 24.05 В 4 н/о н/о +1.1 +0.5 96 -4 -4 1000.8 998.4 +0.3 +1.3
21 24.05 В 6 н/о н/о +0.9 +0.7 99 -6 -6 1002.1 999.7
00 25.05 В 7 н/о н/о +1.1 +0.5 96 -6 -6 1003.3 1000.9 +0.3 +1.3
03 25.05 В 6 н/о н/о +0.7 +0.3 97 -6 -6 1004.6 1002.2
06 25.05 СВ 4 н/о н/о +0.4 +0.2 99 -5 -5 1005.7 1003.3 +0.3 +1.3 1
09 25.05 СВ 5 н/о н/о +0.3 +0.2 99 -6 -6 1006.6 1004.2
12 25.05 СВ 4 н/о н/о +0.5 +0.4 99 -5 -5 1007.7 1005.3 +0.2 +1.3
15 25.05 В 4 н/о н/о +1.2 +0.9 98 -4 -4 1008.8 1006.4 0.2
18 25.05 В 4 н/о {осадки} н/о +1.5 +1.1 97 -4 -4 1009.6 1007.2 +0.2 +1.6 0.7
21 25.05 В 3 н/о н/о +1.7 +1.0 95 -3 -3 1010.8 1008.4
00 26.05 В 5 н/о н/о +1.6 +0.7 94 -4 -4 1011.4 1009.0 +0.2 +2.4 0.3
03 26.05 В 5 н/о н/о +1.2 +0.5 95 -5 -5 1012.2 1009.8

 

Местоположение метеостанции Cambridge Bay Gsn (Канада): широта 69.10 долгота -105.10 высота над уровнем моря 19 м.

В архиве по умолчанию представлена погода в Cambridge Bay Gsn за последнюю неделю. Архивные данные за месяц целиком и за предыдущие месяцы, начиная с января 2011 года, Вы можете получить, выбрав интересующий диапазон дат из раскрывающегося списка и нажав кнопку "Ввод!".

Внимание! Время в таблицах - всемирное. Для получения местного времени необходимо прибавить поправку, которая в Cambridge Bay Gsn равна -7 ч.

Смотрите также архив погоды в соседних городах и на ближайших метеорологических станциях:

Погода в Cape Peel West (Канада) (108 км)
Погода в Ellice River AWS (Канада) (158 км)
Погода в Hat Island (Канада) (223 км)
Погода в Gjoa Haven Climate (Канада) (374 км)
Погода в Kugluktuk (Канада) (432 км)
Погода в Kugluktuk Airport (Канада) (432 км)
Погода в Lupin (Канада) (452 км)
Погода в Lupin (maps) (Канада) (452 км)
Погода в Spence bay (Канада) (454 км)
Погода в Robertson Lake (Канада) (460 км)

Пояснения к столбцам:

Ветер - указаны скорость ветра в м/с - средняя за 10 мин, порывы в срок и между сроками (в фигурных скобках) и направление, откуда дует ветер: С - северный, СВ - северо-восточный, В - восточный, ЮВ - юго-восточный, Ю - южный, ЮЗ - юго-западный, З - западный, СЗ - северо-западный.
Видимость - горизонтальная дальность видимости в метрах или километрах. При видимости от 1 до 10 км при отсутствии осадков обычно наблюдается дымка, при ухудшении видимости до 1 км и менее - туман. В сухую погоду видимость может ухудшаться дымом, пылью или мглою.
Явления - указаны атмосферные явления, наблюдавшиеся в срок или в последний час перед сроком; фигурными скобками обозначены явления, наблюдавшиеся между сроками (за 1-3 часа до срока); квадратными скобками обозначены град или гололедные отложения с указанием их диаметра в мм.
Облачность - указаны через наклонную черту общая и нижняя облачность в баллах и высота нижней границы облаков в метрах; квадратными скобками обозначены формы облаков: Ci - перистые, Cs - перисто-слоистые, Cc - перисто-кучевые, Ac - высококучевые, As - высокослоистые, Sc - слоисто-кучевые, Ns - слоисто-дождевые, Cu - кучевые, Cb - кучево-дождевые. Подробнее классификацию облаков см. в Атласе облаков (PDF).
T - Температура воздуха - температура, измеренная на высоте 2 м над землей.
Td - Температура точки росы - температура, при понижении до которой содержащийся в воздухе водяной пар достигнет насыщения.
f - Относительная влажность воздуха - влажноcть воздуха, измеренная на высоте 2 м над землей.
Te - Эффективная температура - температура, которую ощущает одетый по сезону человек в тени. Характеристика душности погоды. При расчете учитывается влияние влажности воздуха и скорости ветра на теплоощущения человека.
Tes - Эффективная температура на солнце - температура, которую ощущает человек, с поправкой на солнечный нагрев. Характеристика знойности погоды. Зависит от высоты солнца над горизонтом, облачности и скорости ветра. Ночью, в пасмурную погоду, а также при ветре 12 м/с и более поправка равна нулю.
P - Атмосферное давление - приведенное к уровню моря атмосферное давление.
Po - Атмосферное давление - измеренное на уровне метеостанции атмосферное давление.
Tmin - Минимальная температура - минимум температуры воздуха на высоте 2 м над землей.
Tmax - Максимальная температура - максимум температуры воздуха на высоте 2 м над землей.
R - Количество осадков - Количество выпавших осадков за период времени, мм. При наведении курсора мыши на число - период времени, за который выпало указанное количество осадков.
R24 - Количество осадков - Количество выпавших осадков за 24 часа, мм.
S - Снежный покров - Высота снежного покрова, см. При наведении курсора мыши на число - состояние снежного покрова и степень покрытия местности в баллах.